{"data":{"norad_id":69085,"epoch":"2026-09-20T04:46:40.499040Z","epoch_age_seconds":63286,"freshness":"FRESH","line1":"1 69085U 26104N   26263.19907985  .00000053  00000+0  63564-4 0  9993","line2":"2 69085  88.9899 331.7778 0002491 100.6127 259.5305 13.51030564 17982","mean_motion":13.51030564,"eccentricity":0.0002491,"inclination_deg":88.9899,"raan_deg":331.7778,"arg_perigee_deg":100.6127,"mean_anomaly_deg":259.5305,"bstar":6.3564e-5,"rev_number":1798,"period_min":106.58530150026,"perigee_km":1066.6143251282,"apogee_km":1070.3242243742,"semimajor_km":7446.6062747512,"source":"CELESTRAK","updated_at":"2026-09-20T09:00:24.672798Z"}}